Powrót do katalogu

STARLINK-3613

AktywnyŁącznośćVLEO
NORAD 51810·PAYLOAD·🇺🇸 United States

Wystrzelony Feb 25, 2022 z Vandenberg Space Force Base

Loading…

Następne Przeloty (najbliższe 24 godziny)

TLE

ŚwieżeSource: CelesTrak SupGP

Epoka: Sep 14, 2026, 21:36 UTC

1 51810C 22017AU  26257.90048611 -.00014825  00000+0 -43820-3 0  2576
2 51810  53.1599 189.5842 0001330  93.1133 131.2519 15.34384265    17

Śledź STARLINK-3613 w czasie rzeczywistym z AllMySat

Download on the App Store